| time (UTC) | temp F | wind direction | speed MPH | gust MPH | rain 1hr in | rain 24hr in | rain mn in | humidity % | barometer mb |
| 20260502202524 | 64 | 90 | 1.0 | 3.0 | 0.00 | 0.00 | 0.00 | 43 | 1018.2 |
| 20260502201524 | 65 | 68 | 2.0 | 4.0 | 0.00 | 0.00 | 0.00 | 43 | 1018.2 |
| 20260502200523 | 65 | 22 | 1.0 | 2.0 | 0.00 | 0.00 | 0.00 | 42 | 1018.2 |
| 20260502195523 | 67 | 22 | 0.0 | 2.0 | 0.00 | 0.00 | 0.00 | 41 | 1018.2 |
| 20260502194523 | 67 | 22 | 0.0 | 3.0 | 0.00 | 0.00 | 0.00 | 38 | 1018.3 |
| 20260502193523 | 68 | 0 | 0.0 | 0.0 | 0.00 | 0.00 | 0.00 | 37 | 1018.2 |
| 20260502192523 | 69 | 0 | 0.0 | 0.0 | 0.00 | 0.00 | 0.00 | 39 | 1018.1 |
| 20260502191523 | 70 | 0 | 0.0 | 2.0 | 0.00 | 0.00 | 0.00 | 34 | 1017.9 |
| 20260502190524 | 70 | 180 | 2.0 | 5.0 | 0.00 | 0.00 | 0.00 | 35 | 1017.9 |
| 20260502185524 | 72 | 180 | 2.0 | 6.0 | 0.00 | 0.00 | 0.00 | 34 | 1017.8 |
| 20260502184522 | 74 | 338 | 2.0 | 3.0 | 0.00 | 0.00 | 0.00 | 27 | 1017.7 |
| 20260502183843 | 74 | 338 | 1.0 | 3.0 | 0.00 | 0.00 | 0.00 | 27 | 1017.7 |
| 20260502182843 | 75 | 338 | 2.0 | 3.0 | 0.00 | 0.00 | 0.00 | 28 | 1017.7 |
| 20260502181843 | 76 | 338 | 1.0 | 3.0 | 0.00 | 0.00 | 0.00 | 27 | 1017.7 |
| 20260502180843 | 78 | 0 | 0.0 | 0.0 | 0.00 | 0.00 | 0.00 | 24 | 1017.7 |
| 20260502163841 | 79 | 360 | 3.0 | 5.0 | 0.00 | 0.00 | 0.00 | 24 | 1018.5 |
| 20260502162841 | 79 | 360 | 3.0 | 5.0 | 0.00 | 0.00 | 0.00 | 24 | 1018.5 |
| 20260502151825 | 80 | 22 | 2.0 | 5.0 | 0.00 | 0.00 | 0.00 | 23 | 1019.4 |
| 20260502150825 | 81 | 180 | 2.0 | 5.0 | 0.00 | 0.00 | 0.00 | 23 | 1019.5 |
| 20260502130534 | 77 | 360 | 2.0 | 6.0 | 0.00 | 0.00 | 0.00 | 28 | 1021.5 |
| 20260502123545 | 79 | 180 | 2.0 | 5.0 | 0.00 | 0.00 | 0.00 | 29 | 1021.8 |
| 20260502122545 | 78 | 225 | 1.0 | 5.0 | 0.00 | 0.00 | 0.00 | 30 | 1021.8 |
| 20260502121545 | 77 | 225 | 4.0 | 8.0 | 0.00 | 0.00 | 0.00 | 32 | 1022.0 |
| 20260502120545 | 77 | 270 | 2.0 | 7.0 | 0.00 | 0.00 | 0.00 | 32 | 1022.2 |
| 20260502115545 | 77 | 202 | 1.0 | 6.0 | 0.00 | 0.00 | 0.00 | 31 | 1022.4 |
| 20260502114545 | 76 | 270 | 2.0 | 6.0 | 0.00 | 0.00 | 0.00 | 34 | 1022.5 |
| 20260502113545 | 74 | 292 | 3.0 | 8.0 | 0.00 | 0.00 | 0.00 | 34 | 1022.6 |
| 20260502112545 | 74 | 338 | 4.0 | 9.0 | 0.00 | 0.00 | 0.00 | 35 | 1022.8 |
| 20260502111545 | 73 | 338 | 2.0 | 5.0 | 0.00 | 0.00 | 0.00 | 37 | 1023.0 |
| 20260502110545 | 73 | 22 | 2.0 | 4.0 | 0.00 | 0.00 | 0.00 | 34 | 1023.0 |
| 20260502105545 | 73 | 22 | 3.0 | 8.0 | 0.00 | 0.00 | 0.00 | 34 | 1023.1 |
| 20260502104545 | 72 | 315 | 2.0 | 6.0 | 0.00 | 0.00 | 0.00 | 35 | 1023.3 |
| 20260502103545 | 72 | 270 | 4.0 | 9.0 | 0.00 | 0.00 | 0.00 | 37 | 1023.4 |
| 20260502102544 | 72 | 270 | 4.0 | 8.0 | 0.00 | 0.00 | 0.00 | 37 | 1023.7 |
| 20260502101544 | 71 | 315 | 2.0 | 5.0 | 0.00 | 0.00 | 0.00 | 37 | 1023.7 |
| 20260502100544 | 72 | 248 | 1.0 | 4.0 | 0.00 | 0.00 | 0.00 | 39 | 1023.8 |
| 20260502090545 | 69 | 180 | 2.0 | 6.0 | 0.00 | 0.00 | 0.00 | 43 | 1024.2 |
| 20260502070543 | 60 | 180 | 2.0 | 6.0 | 0.00 | 0.00 | 0.00 | 55 | 1024.4 |
| 20260502065543 | 59 | 158 | 2.0 | 5.0 | 0.00 | 0.00 | 0.00 | 56 | 1024.6 |
| 20260502064543 | 56 | 158 | 1.0 | 6.0 | 0.00 | 0.00 | 0.00 | 60 | 1024.4 |
| 20260502063536 | 55 | 135 | 0.0 | 5.0 | 0.00 | 0.00 | 0.00 | 65 | 1024.5 |
| 20260502062536 | 54 | 68 | 0.0 | 1.0 | 0.00 | 0.00 | 0.00 | 68 | 1024.5 |
| 20260502061537 | 53 | 68 | 1.0 | 2.0 | 0.00 | 0.00 | 0.00 | 69 | 1024.5 |
| 20260502060537 | 52 | 68 | 0.0 | 2.0 | 0.00 | 0.00 | 0.00 | 69 | 1024.5 |
| 20260502055536 | 51 | 68 | 2.0 | 3.0 | 0.00 | 0.00 | 0.00 | 70 | 1024.5 |
| 20260502054536 | 51 | 158 | 2.0 | 4.0 | 0.00 | 0.00 | 0.00 | 70 | 1024.3 |
| 20260502053536 | 51 | 158 | 1.0 | 2.0 | 0.00 | 0.00 | 0.00 | 69 | 1024.4 |
| 20260502052536 | 51 | 158 | 1.0 | 4.0 | 0.00 | 0.00 | 0.00 | 68 | 1024.5 |
| 20260502051536 | 51 | 158 | 1.0 | 4.0 | 0.00 | 0.00 | 0.00 | 68 | 1024.5 |
| 20260502050536 | 50 | 158 | 1.0 | 4.0 | 0.00 | 0.00 | 0.00 | 69 | 1024.5 |
| 20260502045536 | 48 | 180 | 1.0 | 4.0 | 0.00 | 0.00 | 0.00 | 73 | 1024.6 |
| 20260502044536 | 46 | 248 | 0.0 | 2.0 | 0.00 | 0.00 | 0.00 | 75 | 1024.6 |
| 20260502043536 | 46 | 248 | 1.0 | 2.0 | 0.00 | 0.00 | 0.00 | 74 | 1024.5 |
| 20260502042536 | 46 | 248 | 0.0 | 2.0 | 0.00 | 0.00 | 0.00 | 74 | 1024.5 |
| 20260502041536 | 46 | 248 | 2.0 | 3.0 | 0.00 | 0.00 | 0.00 | 73 | 1024.4 |
| 20260502040536 | 47 | 248 | 3.0 | 7.0 | 0.00 | 0.00 | 0.00 | 72 | 1024.3 |
| 20260502035536 | 48 | 270 | 3.0 | 6.0 | 0.00 | 0.00 | 0.00 | 70 | 1024.3 |
| 20260502034536 | 48 | 270 | 3.0 | 8.0 | 0.00 | 0.00 | 0.00 | 69 | 1024.3 |
| 20260502033536 | 48 | 68 | 3.0 | 6.0 | 0.00 | 0.00 | 0.00 | 70 | 1024.0 |
| 20260502032536 | 47 | 45 | 2.0 | 4.0 | 0.00 | 0.00 | 0.00 | 71 | 1024.1 |
| 20260502031536 | 47 | 45 | 3.0 | 5.0 | 0.00 | 0.00 | 0.00 | 71 | 1024.1 |
| 20260502030536 | 47 | 45 | 2.0 | 5.0 | 0.00 | 0.00 | 0.00 | 71 | 1024.1 |
| 20260502025536 | 48 | 45 | 3.0 | 6.0 | 0.00 | 0.00 | 0.00 | 69 | 1024.3 |
| 20260502024536 | 49 | 68 | 3.0 | 4.0 | 0.00 | 0.00 | 0.00 | 66 | 1024.3 |
| 20260502023536 | 52 | 90 | 0.0 | 4.0 | 0.00 | 0.00 | 0.00 | 61 | 1024.5 |
| 20260502022536 | 53 | 90 | 0.0 | 1.0 | 0.00 | 0.00 | 0.00 | 58 | 1024.6 |
| 20260502021536 | 53 | 90 | 2.0 | 8.0 | 0.00 | 0.00 | 0.00 | 58 | 1024.7 |
| 20260502020536 | 53 | 112 | 2.0 | 6.0 | 0.00 | 0.00 | 0.00 | 58 | 1024.9 |
| 20260502015536 | 54 | 112 | 2.0 | 3.0 | 0.00 | 0.00 | 0.00 | 57 | 1025.0 |
| 20260502014536 | 53 | 90 | 2.0 | 4.0 | 0.00 | 0.00 | 0.00 | 59 | 1025.1 |
| 20260502013536 | 53 | 90 | 2.0 | 4.0 | 0.00 | 0.00 | 0.00 | 59 | 1025.1 |
| 20260502012534 | 51 | 90 | 3.0 | 6.0 | 0.00 | 0.00 | 0.00 | 63 | 1025.2 |
| 20260502011534 | 50 | 90 | 2.0 | 3.0 | 0.00 | 0.00 | 0.00 | 65 | 1025.3 |
| 20260502010534 | 51 | 90 | 1.0 | 2.0 | 0.00 | 0.00 | 0.00 | 64 | 1025.4 |
| 20260502005534 | 52 | 90 | 2.0 | 3.0 | 0.00 | 0.00 | 0.00 | 63 | 1025.4 |
| 20260502004534 | 54 | 90 | 1.0 | 2.0 | 0.00 | 0.00 | 0.00 | 59 | 1025.5 |
| 20260502003538 | 54 | 90 | 1.0 | 3.0 | 0.00 | 0.00 | 0.00 | 59 | 1025.5 |
| 20260502002538 | 53 | 90 | 2.0 | 5.0 | 0.00 | 0.00 | 0.00 | 59 | 1025.7 |
| 20260502001538 | 53 | 68 | 2.0 | 4.0 | 0.00 | 0.00 | 0.00 | 60 | 1025.8 |
| 20260502000538 | 54 | 68 | 2.0 | 5.0 | 0.00 | 0.00 | 0.00 | 59 | 1025.9 |
| 20260501235538 | 54 | 68 | 2.0 | 4.0 | 0.00 | 0.00 | 0.00 | 58 | 1025.8 |
| 20260501234537 | 54 | 68 | 2.0 | 4.0 | 0.00 | 0.00 | 0.00 | 58 | 1025.9 |
| 20260501233538 | 55 | 68 | 1.0 | 4.0 | 0.00 | 0.00 | 0.00 | 57 | 1025.8 |
| 20260501232538 | 55 | 68 | 1.0 | 4.0 | 0.00 | 0.00 | 0.00 | 56 | 1025.8 |
| 20260501231538 | 55 | 90 | 2.0 | 5.0 | 0.00 | 0.00 | 0.00 | 56 | 1025.8 |
| 20260501230538 | 55 | 112 | 2.0 | 3.0 | 0.00 | 0.00 | 0.00 | 55 | 1025.9 |
| 20260501225538 | 55 | 112 | 2.0 | 3.0 | 0.00 | 0.00 | 0.00 | 55 | 1025.9 |
| 20260501224538 | 56 | 112 | 1.0 | 2.0 | 0.00 | 0.00 | 0.00 | 54 | 1025.9 |
| 20260501223538 | 56 | 112 | 2.0 | 3.0 | 0.00 | 0.00 | 0.00 | 54 | 1025.9 |
| 20260501222538 | 57 | 112 | 1.0 | 2.0 | 0.00 | 0.00 | 0.00 | 52 | 1026.0 |
| 20260501221538 | 58 | 112 | 1.0 | 2.0 | 0.00 | 0.00 | 0.00 | 51 | 1026.0 |
| 20260501220538 | 59 | 112 | 0.0 | 2.0 | 0.00 | 0.00 | 0.00 | 49 | 1025.9 |
| 20260501215538 | 59 | 112 | 2.0 | 4.0 | 0.00 | 0.00 | 0.00 | 47 | 1025.9 |
| 20260501214538 | 59 | 112 | 3.0 | 6.0 | 0.00 | 0.00 | 0.00 | 48 | 1025.7 |
| 20260501213538 | 60 | 112 | 3.0 | 9.0 | 0.00 | 0.00 | 0.00 | 48 | 1025.7 |
| 20260501212538 | 60 | 135 | 2.0 | 6.0 | 0.00 | 0.00 | 0.00 | 46 | 1025.9 |
| 20260501211538 | 61 | 135 | 2.0 | 5.0 | 0.00 | 0.00 | 0.00 | 45 | 1025.8 |
| 20260501210538 | 61 | 112 | 3.0 | 4.0 | 0.00 | 0.00 | 0.00 | 44 | 1025.9 |
| 20260501205538 | 62 | 112 | 2.0 | 6.0 | 0.00 | 0.00 | 0.00 | 44 | 1025.8 |
| 20260501204538 | 62 | 112 | 2.0 | 3.0 | 0.00 | 0.00 | 0.00 | 44 | 1025.9 |
| 20260501203538 | 63 | 112 | 2.0 | 6.0 | 0.00 | 0.00 | 0.00 | 43 | 1026.0 |